Location: Abundant Grace Fellowship
(35.0349°N, 90.0924°W)
Time: 22:36:50
(UTC+00:00)

Cosmos 1833 Rocket - Pass Details

Date: 18 January 2026
Orbit: 831 x 839 km, 71.0° (Epoch: 11 February)

Event Time Altitude Azimuth Distance (km) Brightness Sun altitude
Rises 00:20:26 0° 194° (SSW) 3,371 6.3 -13.6°
Reaches altitude 10° 00:22:52 10° 192° (SSW) 2,441 5.5 -14.0°
Maximum altitude 00:28:26 73° 109° (ESE) 876 2.6 -15.1°
Enters shadow 00:34:01 10° 25° (NNE) 2,442 4.7 -16.2°
